Location: Montjuich
(41.3670°N, 2.1670°E)
Time: 13:21:22
(UTC+02:00)

ISS - Visible Passes

Search period start: 29 May 2017 00:00
Search period end: 08 June 2017 00:00
Orbit: 402 x 408 km, 51.6° (Epoch: 29 May)

Date Brightness Start Highest point End Pass type
(mag) Time Alt. Az. Time Alt. Az. Time Alt. Az.
29 May -0.6 00:51:14 10° NNW 00:53:10 14° N 00:55:05 10° NE visible
29 May -1.2 02:27:22 10° NW 02:28:36 19° NNW 02:28:36 19° NNW visible
29 May -1.1 22:20:45 10° WNW 22:23:25 22° NNW 22:26:06 10° NE visible
29 May -0.6 23:59:01 10° NNW 00:00:49 14° N 00:02:38 10° NNE visible
30 May -1.3 01:35:30 10° NW 01:37:46 22° N 01:37:46 22° N visible
30 May -0.7 23:06:34 10° NW 23:08:28 14° N 23:10:22 10° NNE visible
31 May -1.1 00:43:35 10° NNW 00:45:57 18° NNE 00:47:06 15° NE visible
31 May -0.7 02:19:38 10° NW 02:19:43 11° NW 02:19:43 11° NW visible
31 May -0.8 22:13:57 10° NW 22:16:07 16° NNW 22:18:18 10° NNE visible
31 May -0.8 23:51:35 10° NNW 23:53:37 15° N 23:55:38 10° NE visible
01 Jun -1.4 01:27:39 10° NW 01:29:09 22° NNW 01:29:09 22° NNW visible
01 Jun -0.8 22:59:24 10° NNW 23:01:14 14° N 23:03:04 10° NE visible
02 Jun -1.8 00:35:44 10° NW 00:38:35 26° NNE 00:38:38 26° NNE visible
02 Jun -0.9 22:07:00 10° NW 22:08:51 14° N 22:10:42 10° NNE visible
02 Jun -1.3 23:43:47 10° NNW 23:46:18 20° NNE 23:48:10 13° ENE visible
03 Jun -1.2 01:19:52 10° NW 01:20:48 17° NW 01:20:48 17° NW visible
03 Jun -1.0 22:51:47 10° NNW 22:53:57 16° NNE 22:56:05 10° NE visible
04 Jun -2.5 00:27:50 10° NW 00:30:21 39° N 00:30:21 39° N visible
04 Jun -1.0 21:59:39 10° NNW 22:01:32 14° N 22:03:25 10° NE visible
04 Jun -2.2 23:35:51 10° NW 23:38:49 30° NNE 23:39:56 24° ENE visible
05 Jun -0.9 01:12:17 10° WNW 01:12:35 12° WNW 01:12:35 12° WNW visible
05 Jun -1.6 22:43:53 10° NNW 22:46:31 22° NNE 22:49:09 10° ENE visible
06 Jun -2.5 00:20:01 10° WNW 00:22:11 38° WNW 00:22:11 38° WNW visible
06 Jun -3.4 23:27:55 10° NW 23:31:10 58° NNE 23:31:49 46° E visible
07 Jun -2.5 22:35:52 10° NW 22:38:56 35° NNE 22:41:29 13° E visible
